FW2825 Weather Reports


time (UTC)temp
F
wind
direction
speed
knots
gust
knots
rain 1hr
in
rain 24hr
in
rain mn
in
humidity
%
barometer
mb
20260502151625 50 360 0.0 0.0 0.00 0.20 0.20 85 1011.6
20260502150109 51 360 0.0 0.0 0.00 0.20 0.20 84 1011.6
20260502140110 51 360 0.0 0.0 0.00 0.20 0.20 91 1011.7
20260502130116 49 360 0.0 0.0 0.00 0.20 0.20 96 1012.0
20260502123108 47 360 0.0 0.0 0.01 0.20 0.20 96 1012.1
20260502121615 47 360 0.0 0.0 0.02 0.20 0.20 96 1012.2
20260502120122 46 360 0.0 0.0 0.02 0.20 0.20 96 1012.3
20260502114606 46 360 0.0 0.0 0.02 0.20 0.20 96 1012.3
20260502113113 45 360 0.0 0.0 0.02 0.19 0.19 96 1012.5
20260502111618 45 360 0.0 0.0 0.03 0.18 0.18 96 1012.5
20260502110106 45 360 0.0 0.0 0.10 0.18 0.18 96 1012.4
20260502104612 45 360 0.0 0.0 0.11 0.18 0.18 95 1012.0
20260502103119 45 360 0.0 0.0 0.10 0.17 0.17 95 1011.9
20260502101607 45 360 0.0 0.0 0.09 0.15 0.15 95 1012.2
20260502100113 45 360 0.0 0.0 0.02 0.08 0.08 95 1012.1
20260502090121 45 360 0.0 0.0 0.04 0.06 0.06 94 1011.7
20260502080107 46 360 0.0 0.0 0.01 0.02 0.02 93 1011.8
20260502070117 46 360 0.0 0.0 0.01 0.01 0.01 90 1011.8
20260502064622 46 360 0.0 0.0 0.00 0.00 0.00 89 1012.0
20260502063113 46 360 0.0 0.0 0.00 0.00 0.00 88 1011.7
20260502061614 47 360 0.0 0.0 0.00 0.00 0.00 89 1011.6
20260502060122 47 360 0.0 0.0 0.00 0.00 0.00 87 1011.9
20260502054604 47 360 0.0 0.0 0.00 0.00 0.00 86 1011.9
20260502053112 47 360 0.0 0.0 0.00 0.00 0.00 83 1011.8
20260502051615 48 360 0.0 0.0 0.00 0.00 0.00 83 1011.5
20260502050106 48 360 0.0 0.0 0.00 0.00 0.00 82 1012.0
20260502044608 48 360 0.0 0.0 0.00 0.00 0.00 82 1012.0
20260502043116 48 360 0.0 0.0 0.00 0.00 0.00 79 1011.6
20260502041603 48 360 0.0 0.0 0.00 0.00 0.00 81 1011.5
20260502040112 48 360 0.0 0.0 0.00 0.00 0.00 79 1011.6
20260502034615 48 360 0.0 0.0 0.00 0.00 0.00 79 1011.4
20260502033103 48 360 0.0 0.0 0.00 0.00 0.00 78 1011.6
20260502031606 48 360 0.0 0.0 0.00 0.00 0.00 76 1011.7
20260502030111 48 360 0.0 0.0 0.00 0.00 0.00 75 1011.8
20260502024506 48 360 0.0 0.0 0.00 0.00 0.00 75 1011.5
20260502023102 48 360 0.0 0.0 0.00 0.00 0.00 73 1011.5
20260502021619 48 360 0.0 0.0 0.00 0.00 0.00 71 1011.5
20260502020115 49 360 0.0 0.0 0.00 0.00 0.00 72 1011.6
20260502014514 49 360 0.0 0.0 0.00 0.00 0.00 71 1011.5
20260502013108 49 360 0.0 0.0 0.00 0.00 0.00 70 1011.5
20260502011616 50 360 0.0 0.0 0.00 0.00 0.00 66 1011.3
20260502010010 50 360 0.0 0.0 0.00 0.00 0.00 67 1011.1
20260502004612 50 360 0.0 0.0 0.00 0.00 0.00 69 1010.9
20260502003112 51 360 0.0 0.0 0.00 0.00 0.00 65 1010.8
20260502001619 53 360 0.0 0.0 0.00 0.00 0.00 59 1010.6
20260502000010 54 360 0.0 0.0 0.00 0.00 0.00 54 1010.3
20260501234609 56 360 0.0 0.0 0.00 0.00 0.00 46 1010.2
20260501233115 57 360 0.0 0.0 0.00 0.00 0.00 44 1010.0
20260501231602 58 360 0.0 0.0 0.00 0.00 0.00 42 1009.8
20260501230114 59 360 0.0 0.0 0.00 0.00 0.00 42 1009.7
20260501224504 60 360 0.0 0.0 0.00 0.00 0.00 41 1009.6
20260501223107 61 360 0.0 0.0 0.00 0.00 0.00 35 1009.4
20260501221612 61 360 0.0 0.0 0.00 0.00 0.00 38 1009.4
20260501220119 61 360 0.0 0.0 0.00 0.00 0.00 36 1009.5
20260501214606 62 360 0.0 0.0 0.00 0.00 0.00 35 1009.5
20260501213112 62 360 0.0 0.0 0.00 0.00 0.00 36 1009.6
20260501211504 63 360 0.0 0.9 0.00 0.00 0.00 35 1009.4
20260501210105 62 360 0.0 1.7 0.00 0.00 0.00 35 1009.4
20260501204616 61 360 0.0 0.9 0.00 0.00 0.00 34 1009.4
20260501203119 62 360 0.0 15.6 0.00 0.00 0.00 33 1009.2
20260501201613 63 360 0.0 8.7 0.00 0.00 0.00 36 1009.3
20260501200110 63 360 0.0 0.0 0.00 0.00 0.00 35 1009.3
20260501194615 62 360 2.6 13.0 0.00 0.00 0.00 33 1009.5
20260501193103 62 360 0.0 0.0 0.00 0.00 0.00 35 1009.5
20260501191609 62 360 0.0 0.0 0.00 0.00 0.00 35 1009.6
20260501190113 61 360 0.0 7.0 0.00 0.00 0.00 36 1009.8
20260501184504 61 360 0.0 10.4 0.00 0.00 0.00 38 1010.2
20260501183105 61 360 0.0 7.8 0.00 0.00 0.00 33 1010.3
20260501181608 59 360 0.0 10.4 0.00 0.00 0.00 39 1010.4
20260501180117 60 360 0.0 2.6 0.00 0.00 0.00 38 1010.5
20260501174506 59 360 0.0 0.0 0.00 0.01 0.00 37 1010.5
20260501173110 59 360 0.0 13.9 0.00 0.01 0.00 38 1010.5
20260501171613 61 360 0.0 3.5 0.00 0.01 0.00 36 1010.3
20260501170004 60 360 0.0 7.8 0.00 0.01 0.00 39 1010.6
20260501164606 58 360 0.0 7.8 0.00 0.02 0.00 36 1010.4
20260501163113 58 360 0.0 7.8 0.00 0.02 0.00 43 1010.6
20260501161618 58 360 0.0 3.5 0.00 0.02 0.00 42 1010.5
20260501160110 58 360 0.0 1.7 0.00 0.02 0.00 42 1010.7